Погода в Тухольке

Украина / Львовская область     48°52′54″N   23°17′24″E
темп.,
°C
ветер,
м/с
пор.,
м/с
влажн.,
%
обл.,
%
осадки,
мм/ч
давл.,
гПа
погр.,
м
27 сентября, пн
пн2700:00+10в119635 0.0 102210
03:00+9всв119625 0.0 102110
06:00+9в11975 0.0 102110
09:00+11всв11925 0.0 102091
12:00+16всв226814 0.0 1020720
15:00+17всв326442 0.0 1018993
18:00+14св24774 0.0 1019413
21:00+9всв11955 0.0 102016
28 сентября, вт
вт2800:00+8в11965 0.0 102012
03:00+6в11955 0.0 102111
06:00+6всв11955 0.0 102010
09:00+8всв12845 0.0 1021115
12:00+13св22635 0.0 1020560
15:00+14св335964 0.0 1021711
18:00+12всв2571100 0.0 1022414
21:00+7св2484100 0.0 1024108
29 сентября, ср
ср2900:00+5в119352 0.0 102511
03:00+5вюв119180 0.0 102518
06:00+6вюв1185100 0.0 102528
09:00+9в117798 0.0 102495
12:00+12в126695 0.0 1024361
15:00+16вюв125948 0.0 10231027
18:00+13в117455 0.1 102333
21:00+8юв119016 0.1 102510
30 сентября, чт
чт3000:00+8ю229313 0.0 102622
03:00+8ю2294100 0.0 102627
06:00+8ю2294100 0.0 102631
09:00+10ю1283100 0.0 102682
12:00+12юз1265100 0.0 1027327
15:00+13зсз1158100 0.0 1026582
18:00+12с1273100 0.0 102661
21:00+8ссв1196100 0.0 102813
1 октября, пт
пт100:00+8в1196100 0.0 102910
03:00+7всв0094100 0.0 102810
06:00+7в009496 0.0 102810
09:00+9юв018430 0.0 102860
12:00+16ююз11566 0.0 1026921
15:00+17ю1150100 0.0 10251610
18:00+13в1173100 0.1 102513
21:00+9ю1191100 0.1 102610